Location: Ammerl�gen
(47.2167°N, 9.6000°E)
Time: 03:28:11
(UTC+00:00)

Lacrosse 5 rocket - Pass Details

Date: 21 April 2021
Orbit: 460 x 634 km, 57.0° (Epoch: 16 May)

Event Time Altitude Azimuth Distance (km) Brightness Sun altitude
Rises 22:26:57 0° 308° (NW) 2,795 5.7 -29.4°
Reaches altitude 10° 22:29:10 10° 310° (NW) 1,920 4.7 -29.5°
Enters shadow 22:31:40 34° 316° (NW) 999 3.0 -29.6°
